User: anonymous   Login
Location: Unspecified
(0.0000°N, 0.0000°E)
Time: 09:19:00
(UTC+00:00)
Language:

TES - Orbit

View from above orbital plane
View from above orbital plane
View from above satellite
View from above satellite

Ground track
Ground track

The orbit data is extracted from the following two-line orbital elements,

1 26957U 01049A   18018.77300834  .00000878  00000-0  56251-4 0  9999
2 26957  97.6741 123.9781 0039442   8.1458 143.7233 15.10653290890950
Epoch (UTC): 18 January 2018 18:33:07
Eccentricity: 0.0039442
inclination: 97.6741°
perigee height: 507 km
apogee height: 561 km
right ascension of ascending node: 123.9781°
argument of perigee: 8.1458°
revolutions per day: 15.10653290
mean anomaly at epoch: 143.7233°
orbit number at epoch: 89095

The dashed part of the orbit path shows where the satellite is in the earth's shadow,  

DLR